Weather History for Atka, AK

Change the Weather History Date:

Monday, November 11, 2013

  Actual Average (PADK) Record (PADK)
Temperature  
Mean Temperature 43 °F -  
Max Temperature 44 °F 42 °F 54 °F (1949)
Min Temperature 42 °F 32 °F 22 °F (1950)
Degree Days  
Heating Degree Days 22    
Moisture  
Dew Point 33 °F    
Average Humidity 67    
Maximum Humidity 81    
Minimum Humidity 57    
Precipitation  
Precipitation 0.00 in - - ()
Sea Level Pressure  
Sea Level Pressure 30.69 in    
Wind  
Wind Speed 11 mph (West)    
Max Wind Speed 20 mph    
Max Gust Speed 28 mph    
Visibility 10 miles    
Events      
Averages and records for this station are not official NWS values.
T = Trace of Precipitation, MM = Missing Value Source: NWS Daily Summary

Daily Weather History Graph

Daily Weather History Graph

Search for Another Location

Airport:

Trip Planner

Search our weather history database for the weather conditions in past years. The results will help you decide how hot, cold, wet, or windy it might be!

Date:

Astronomy

Nov. 11, 2013 Rise Set
Actual Time 8:51 AM HAST 5:49 PM HAST
Civil Twilight 8:14 AM HAST 6:26 PM HAST
Nautical Twilight 7:33 AM HAST 7:08 PM HAST
Astronomical Twilight 6:53 AM HAST 7:47 PM HAST
Moon 3:17 PM HAST (11/11) 2:08 AM HAST (11/11)
Length of Visible Light 10h 12m
Length of Day
8h 58m
Waxing Gibbous, 68% of the Moon is Illuminated
Nov 11
Waxing Gibbous
Nov 17
Full
Nov 25
Last Quarter
Dec 2
New
Dec 9
First Quarter

Hourly Weather History & Observations

Time (HAST) Temp. Windchill Dew Point Humidity Pressure Visibility Wind Dir Wind Speed Gust Speed Precip Events Conditions
12:16 AM 42.8 °F 34.8 °F 35.6 °F 76% 30.77 in 10.0 mi West 17.3 mph 27.6 mph N/A   Overcast
12:36 AM 42.8 °F 35.4 °F 33.8 °F 70% 30.77 in 10.0 mi West 15.0 mph 24.2 mph N/A   Mostly Cloudy
12:56 AM 42.8 °F 34.3 °F 33.8 °F 70% 30.77 in 10.0 mi West 19.6 mph 24.2 mph N/A   Mostly Cloudy
1:16 AM 42.8 °F 35.8 °F 33.8 °F 70% 30.77 in 10.0 mi West 13.8 mph - N/A   Overcast
1:36 AM 42.8 °F 35.4 °F 33.8 °F 70% 30.77 in 10.0 mi West 15.0 mph - N/A   Overcast
1:56 AM 42.8 °F 36.2 °F 33.8 °F 70% 30.77 in 10.0 mi West 12.7 mph 17.3 mph N/A   Mostly Cloudy
2:16 AM 42.8 °F 36.2 °F 33.8 °F 70% 30.78 in 10.0 mi West 12.7 mph 16.1 mph N/A   Mostly Cloudy
2:36 AM 42.8 °F 35.4 °F 32.0 °F 66% 30.77 in 10.0 mi West 15.0 mph - N/A   Overcast
2:56 AM 42.8 °F 35.1 °F 30.2 °F 61% 30.77 in 10.0 mi West 16.1 mph - N/A   Overcast
3:16 AM 42.8 °F 35.4 °F 30.2 °F 61% 30.76 in 10.0 mi West 15.0 mph - N/A   Overcast
3:36 AM 42.8 °F 35.4 °F 30.2 °F 61% 30.76 in 10.0 mi West 15.0 mph - N/A   Mostly Cloudy
3:56 AM 42.8 °F 35.8 °F 30.2 °F 61% 30.75 in 10.0 mi West 13.8 mph 21.9 mph N/A   Mostly Cloudy
4:16 AM 42.8 °F 36.6 °F 33.8 °F 70% 30.75 in 10.0 mi West 11.5 mph 16.1 mph N/A   Overcast
4:36 AM 42.8 °F 38.0 °F 30.2 °F 61% 30.75 in 10.0 mi West 8.1 mph - N/A   Overcast
4:56 AM 42.8 °F 36.2 °F 30.2 °F 61% 30.74 in 10.0 mi West 12.7 mph 17.3 mph N/A   Overcast
5:16 AM 42.8 °F 37.0 °F 30.2 °F 61% 30.74 in 10.0 mi West 10.4 mph - N/A   Overcast
5:36 AM 42.8 °F 36.6 °F 30.2 °F 61% 30.73 in 10.0 mi West 11.5 mph - N/A   Overcast
5:56 AM 42.8 °F 38.0 °F 32.0 °F 66% 30.73 in 10.0 mi West 8.1 mph - N/A   Overcast
6:16 AM 42.8 °F 37.5 °F 32.0 °F 66% 30.73 in 10.0 mi West 9.2 mph - N/A   Overcast
6:36 AM 42.8 °F 36.6 °F 32.0 °F 66% 30.73 in 10.0 mi West 11.5 mph - N/A   Overcast
6:56 AM 42.8 °F 37.0 °F 32.0 °F 66% 30.73 in 10.0 mi WNW 10.4 mph - N/A   Overcast
7:16 AM 42.8 °F 37.0 °F 32.0 °F 66% 30.74 in 10.0 mi West 10.4 mph - N/A   Overcast
7:36 AM 42.8 °F 36.6 °F 33.8 °F 70% 30.73 in 10.0 mi West 11.5 mph - N/A   Overcast
7:56 AM 42.8 °F 37.5 °F 32.0 °F 66% 30.73 in 10.0 mi WNW 9.2 mph - N/A   Overcast
8:16 AM 42.8 °F 36.6 °F 33.8 °F 70% 30.73 in 10.0 mi West 11.5 mph - N/A   Overcast
8:36 AM 42.8 °F 35.8 °F 33.8 °F 70% 30.73 in 10.0 mi West 13.8 mph 17.3 mph N/A   Overcast
8:56 AM 42.8 °F 35.4 °F 32.0 °F 66% 30.73 in 10.0 mi WNW 15.0 mph 20.7 mph N/A   Overcast
9:16 AM 42.8 °F 36.6 °F 32.0 °F 66% 30.73 in 10.0 mi West 11.5 mph - N/A   Overcast
9:36 AM 42.8 °F 37.5 °F 30.2 °F 61% 30.73 in 10.0 mi West 9.2 mph - N/A   Overcast
9:56 AM 42.8 °F 37.0 °F 33.8 °F 70% 30.73 in 10.0 mi WNW 10.4 mph - N/A   Overcast
10:16 AM 42.8 °F 37.0 °F 33.8 °F 70% 30.73 in 10.0 mi West 10.4 mph - N/A   Overcast
10:36 AM 42.8 °F 38.0 °F 32.0 °F 66% 30.73 in 10.0 mi West 8.1 mph - N/A   Overcast
10:56 AM 42.8 °F 38.0 °F 32.0 °F 66% 30.72 in 10.0 mi WSW 8.1 mph - N/A   Overcast
11:16 AM 44.6 °F 40.7 °F 30.2 °F 57% 30.72 in 10.0 mi WSW 6.9 mph - N/A   Overcast
11:36 AM 44.6 °F 39.7 °F 32.0 °F 61% 30.72 in 10.0 mi WSW 9.2 mph - N/A   Overcast
11:56 AM 44.6 °F 40.7 °F 32.0 °F 61% 30.71 in 10.0 mi West 6.9 mph - N/A   Overcast
12:16 PM 44.6 °F 40.2 °F 32.0 °F 61% 30.71 in 10.0 mi West 8.1 mph - N/A   Overcast
12:36 PM 44.6 °F 39.7 °F 30.2 °F 57% 30.71 in 10.0 mi West 9.2 mph - N/A   Overcast
12:56 PM 44.6 °F 40.2 °F 30.2 °F 57% 30.71 in 10.0 mi West 8.1 mph - N/A   Overcast
1:16 PM 44.6 °F 40.7 °F 30.2 °F 57% 30.71 in 10.0 mi WNW 6.9 mph - N/A   Overcast
1:36 PM 44.6 °F 40.7 °F 30.2 °F 57% 30.70 in 10.0 mi West 6.9 mph - N/A   Overcast
1:56 PM 44.6 °F 40.7 °F 32.0 °F 61% 30.69 in 10.0 mi West 6.9 mph - N/A   Overcast
2:16 PM 44.6 °F 39.2 °F 32.0 °F 61% 30.67 in 10.0 mi West 10.4 mph - N/A   Overcast
2:36 PM 44.6 °F 39.2 °F 32.0 °F 61% 30.67 in 10.0 mi WNW 10.4 mph - N/A   Overcast
2:56 PM 42.8 °F 38.0 °F 32.0 °F 66% 30.67 in 10.0 mi WNW 8.1 mph - N/A   Overcast
3:16 PM 42.8 °F 38.0 °F 30.2 °F 61% 30.66 in 10.0 mi NW 8.1 mph - N/A   Overcast
3:36 PM 42.8 °F 37.0 °F 32.0 °F 66% 30.66 in 10.0 mi West 10.4 mph - N/A   Overcast
3:56 PM 42.8 °F 38.6 °F 32.0 °F 66% 30.65 in 10.0 mi WNW 6.9 mph - N/A   Overcast
4:16 PM 44.6 °F 39.7 °F 32.0 °F 61% 30.64 in 10.0 mi West 9.2 mph 16.1 mph N/A   Overcast
4:36 PM 44.6 °F 40.2 °F 30.2 °F 57% 30.64 in 10.0 mi West 8.1 mph - N/A   Overcast
4:56 PM 44.6 °F 41.4 °F 32.0 °F 61% 30.64 in 10.0 mi West 5.8 mph - N/A   Overcast
5:16 PM 42.8 °F 40.1 °F 32.0 °F 66% 30.64 in 10.0 mi WNW 4.6 mph - N/A   Overcast
5:36 PM 42.8 °F 41.1 °F 33.8 °F 70% 30.63 in 10.0 mi West 3.5 mph - N/A   Overcast
5:56 PM 42.8 °F 39.3 °F 33.8 °F 70% 30.62 in 10.0 mi West 5.8 mph - N/A   Overcast
6:16 PM 42.8 °F 40.1 °F 33.8 °F 70% 30.62 in 10.0 mi WNW 4.6 mph - N/A   Overcast
6:36 PM 42.8 °F 40.1 °F 33.8 °F 70% 30.61 in 10.0 mi West 4.6 mph - N/A   Overcast
6:56 PM 42.8 °F 38.6 °F 35.6 °F 76% 30.61 in 10.0 mi WNW 6.9 mph - N/A   Overcast
7:16 PM 42.8 °F 38.6 °F 35.6 °F 76% 30.61 in 10.0 mi NW 6.9 mph - N/A   Overcast
7:36 PM 42.8 °F 38.6 °F 35.6 °F 76% 30.60 in 10.0 mi WNW 6.9 mph - N/A   Overcast
7:56 PM 42.8 °F 38.6 °F 35.6 °F 76% 30.60 in 10.0 mi NW 6.9 mph - N/A   Overcast
8:16 PM 42.8 °F 39.3 °F 35.6 °F 76% 30.61 in 10.0 mi NW 5.8 mph - N/A   Overcast
8:36 PM 42.8 °F - 37.4 °F 81% 30.60 in 10.0 mi Calm Calm - N/A   Overcast
8:56 PM 42.8 °F 41.1 °F 37.4 °F 81% 30.60 in 10.0 mi WNW 3.5 mph - N/A   Overcast
9:16 PM 42.8 °F - 37.4 °F 81% 30.59 in 10.0 mi Calm Calm - N/A   Overcast
9:36 PM 42.8 °F 39.3 °F 37.4 °F 81% 30.59 in 10.0 mi WSW 5.8 mph - N/A   Overcast
9:56 PM 42.8 °F 40.1 °F 35.6 °F 76% 30.59 in 10.0 mi West 4.6 mph - N/A   Overcast
10:16 PM 42.8 °F 39.3 °F 35.6 °F 76% 30.58 in 10.0 mi West 5.8 mph - N/A   Overcast
10:36 PM 44.6 °F 42.2 °F 35.6 °F 71% 30.57 in 10.0 mi West 4.6 mph - N/A   Overcast
10:56 PM 44.6 °F 42.2 °F 35.6 °F 71% 30.57 in 10.0 mi WNW 4.6 mph - N/A   Overcast
11:16 PM 44.6 °F 43.1 °F 35.6 °F 71% 30.56 in 10.0 mi NNW 3.5 mph - N/A   Overcast
11:36 PM 44.6 °F 42.2 °F 35.6 °F 71% 30.56 in 10.0 mi NW 4.6 mph - N/A   Overcast
11:56 PM 44.6 °F 40.7 °F 37.4 °F 76% 30.56 in 10.0 mi West 6.9 mph - N/A   Overcast